Santa Fe, NM

11:53 PM MDT on April 21, 2018 (GMT -0600)
Santa Fe Municipal

Weather History for KSAF - November, 2011

Change the Weather History Date:

Wednesday, November 16, 2011

  Actual Average Record
Temperature  
Mean Temperature 40 °F -  
Max Temperature 53 °F 48 °F 66 °F (1999)
Min Temperature 28 °F 25 °F 12 °F (1997)
Degree Days  
Heating Degree Days 24    
Moisture  
Dew Point 17 °F    
Average Humidity 43    
Maximum Humidity 67    
Minimum Humidity 20    
Precipitation  
Precipitation 0.00 in - - ()
Sea Level Pressure  
Sea Level Pressure 30.10 in    
Wind  
Wind Speed 7 mph (NNE)    
Max Wind Speed 12 mph    
Max Gust Speed -    
Visibility 10 miles    
Events      
Averages and records for this station are not official NWS values.
T = Trace of Precipitation, MM = Missing Value Source: NWS Daily Summary

Daily Weather History Graph

Daily Weather History Graph

Search for Another Location

Airport or City:

Astronomy

Nov. 16, 2011 Rise Set
Actual Time 6:40 AM MST 4:56 PM MST
Civil Twilight 6:13 AM MST 5:24 PM MST
Nautical Twilight 5:42 AM MST 5:55 PM MST
Astronomical Twilight 5:12 AM MST 6:25 PM MST
Moon 10:11 PM MST (11/16) 11:19 AM MST (11/16)
Length of Visible Light 11h 10m
Length of Day
10h 16m
Waning Gibbous, 69% of the Moon is Illuminated
Nov 16
Waning Gibbous
Nov 18
Last Quarter
Nov 24
New
Dec 2
First Quarter
Dec 10
Full

Hourly Weather History & Observations

Time (MST) Temp. Windchill Dew Point Humidity Pressure Visibility Wind Dir Wind Speed Gust Speed Precip Events Conditions
12:53 AM 30.9 °F 25.2 °F 19.0 °F 61% 29.90 in 10.0 mi North 5.8 mph - N/A   Clear
1:53 AM 30.9 °F 23.5 °F 19.0 °F 61% 29.89 in 10.0 mi North 8.1 mph - N/A   Clear
3:53 AM 30.9 °F 21.7 °F 19.9 °F 64% 29.90 in 10.0 mi North 11.5 mph - N/A   Partly Cloudy
5:53 AM 28.9 °F 21.9 °F 19.0 °F 67% 30.01 in 10.0 mi North 6.9 mph - N/A   Clear
6:53 AM 33.1 °F 24.4 °F 21.0 °F 61% 30.04 in 10.0 mi North 11.5 mph - N/A   Clear
7:53 AM 37.9 °F 33.5 °F 23.0 °F 55% 30.06 in 10.0 mi North 5.8 mph - N/A   Clear
8:53 AM 43.0 °F 36.8 °F 24.1 °F 47% 30.08 in 10.0 mi North 11.5 mph - N/A   Clear
9:53 AM 46.9 °F - 23.0 °F 39% 30.08 in 10.0 mi North 6.9 mph - N/A   Clear
10:53 AM 50.0 °F - 19.9 °F 31% 30.08 in 10.0 mi Variable 6.9 mph - N/A   Clear
11:53 AM 48.9 °F - 19.0 °F 31% 30.08 in 10.0 mi North 6.9 mph - N/A   Clear
12:53 PM 50.0 °F - 18.0 °F 28% 30.08 in 10.0 mi Variable 3.5 mph - N/A   Clear
1:53 PM 51.1 °F - 18.0 °F 27% 30.07 in 10.0 mi SSE 4.6 mph - N/A   Clear
2:53 PM 53.1 °F - 12.9 °F 20% 30.08 in 10.0 mi North 4.6 mph - N/A   Clear
3:53 PM 51.1 °F - 10.9 °F 20% 30.10 in 10.0 mi Calm Calm - N/A   Clear
5:53 PM 43.0 °F 38.8 °F 9.0 °F 25% 30.19 in 10.0 mi SW 6.9 mph - N/A   Clear
6:53 PM 37.9 °F 34.4 °F 6.1 °F 27% 30.22 in 10.0 mi SW 4.6 mph - N/A   Clear
7:53 PM 37.0 °F - 6.1 °F 28% 30.23 in 10.0 mi Calm Calm - N/A   Clear
8:53 PM 35.1 °F 29.3 °F 12.9 °F 40% 30.24 in 10.0 mi SE 6.9 mph - N/A   Clear
9:53 PM 30.0 °F - 14.0 °F 51% 30.25 in 10.0 mi Calm Calm - N/A   Clear
10:53 PM 32.0 °F 27.5 °F 17.1 °F 54% 30.24 in 10.0 mi SE 4.6 mph - N/A   Clear
11:53 PM 32.0 °F 26.4 °F 18.0 °F 56% 30.25 in 10.0 mi SE 5.8 mph - N/A   Clear